Погода Петропавловск-Камч.

Погода Петропавловск-Камч. : погода сейчас, прогноз погоды и архив. Всё, что Вы хотите узнать о погоде Петропавловск-Камч.!

Хотите узнать прогноз погоды Петропавловск-Камч.? Тогда Вам сюда: Погода Петропавловск-Камч.

Поиск расширенной информации на нашем сайте:

Другие новости

Новости СМИ2

Главная страница сайта

Новости сайта

02.10.2013

Напоминаем, что на нашем новом сайте вы можете получить высокодетализированные прогнозы погоды по пунктам России, СНГ и мира (включающие важные для авиации метеовеличины, такие как направление и скорость ветра, видимость, явления погоды, количество и форма облачности, нижняя и верхняя граница облачности), а также ознакомиться с разнообразными материалами по авиационной метеорологии и подборкой полезных ссылок на эту тему.

Сайт Метеоцентр.Азия посвящён разработке технологий оптимизации авиаметеорологического обслуживания, включая проектирование и перспективное создание нескольких автоматизированных авиаметеорологических систем:
- система выпуска высокодетальных прогностических карт явлений погоды для нижнего воздушного пространства по России и ближнему зарубежью;
- система верификации прогнозов TAF (выпускаемых синоптиками официальных АМСГ РФ и ближнего зарубежья) и AUTOTAF (выпускаемых сайтом Метеоцентр.Азия) - выявление ошибок, онлайн-сопоставление с фактической погодой METAR, автоматическое внесение коррективов в прогнозы при резком отклонении фактической погоды от прогноза, подсчёт оправдываемости прогнозов по элементам и в целом;
- система обработки, анализа и отображения авиаметеорологической информации для применения провайдерами метеорологической информации.

Рекомендуем: Aist дорожные классические городские велосипеды.

Погода Петропавловск-Камч. - сегодня

Время (UTC), дата Ветер
(°,м/с) 
Видим.   Явления Облачность Т
(°С)
Тd
(°С)
f(%) Тe
(°С)
Pmin
(гПа)
dP
(гПа)
Po
(мм)
O2
(г/м3)
Тmin Tmax R s Состояние
почвы
18 25.05.17 тихо ()   10 км  туман на расстоянии  10/10 300 м 
[St]
+3.1 +0.5 83 +3  1018.2  -1.1  761  303           
21 25.05.17 270 (З) 10 км  туман на расстоянии  10/10 300 м 
[St]
+4.6 +0.8 76 +5  1018.1  0.1  761  302  +2.7        сухая 
00 26.05.17 170 (Ю) 20000 м    3/1 300 м верхняя 
[St|Ci fib]
+9.3 +2.2 61 +10  1016.4  -1.6  760  296           
03 26.05.17 160 (Ю) 20000 м    10/1 1000 м средняя, верхняя 
[Sc|Ac trans|Ci fib]
+8.2 +1.6 63 +8  1014.9  -1.5  759  297           
06 26.05.17 150 (ЮВ) 20000 м    10/1 600 м средняя 
[Sc|Ac As]
+4.6 +0.8 76 +2  1014.1  -0.9  758  300           
09 26.05.17 160 (Ю) 20000 м    10/8 600 м средняя 
[Sc|Ac As]
+4.1 +1.5 83 +2  1012.8  -1.3  757  300    +10.2       
12 26.05.17 110 (В) 20000 м    10/10 300 м 
[Sc]
+4 +2 87 +4  1011.6  -1.2  756  300           
15 26.05.17 310 (СЗ) 10 км  слаб. ливневой дождь  10/10 300 м кучево-дожд. 
[Cb cap]
+3.9 +2.5 91 +3  1009.1  -2.4  755  299           
18 26.05.17 тихо ()   10 км  слаб. ливневой дождь  10/10 300 м кучево-дожд. 
[Cb cap]
+4 +2.6 91 +4  1007.5  -1.6  753  299           
00 27.05.17 330 (СЗ) 20000 м  {ливн. осадки}  6/5 600 м верхняя 
[Sc|Ci fib]
+10.2 +4.4 67 +10  1003.7  -2.2  751  291           
09 27.05.17 300 (СЗ) 8-10{16}  20000 м    3/1 600 м средняя 
[Sc|Ac trans]
+10.4 +2.2 57 +8  1003.7  1.1  751  291    +13.1       
21 27.05.17 340 (С) 7{12}  20000 м    9/0 верхняя 
[Ci]
+9.3 +1.4 58 +7  1005.8  0.7  752  293  +6.5        влажная 
00 28.05.17 230 (ЮЗ) 20000 м    9/0 средняя, верхняя 
[Ac lent|Cc]
+15.2 +0.6 37 +17  1006.4  0.6  753  287           
03 28.05.17 170 (Ю) 20000 м    6/1 1000 м средняя, верхняя 
[Sc|Ac As|Cc]
+17 -1.8 28 +18  1006  -0.3  752  286           
06 28.05.17 140 (ЮВ) 20000 м    9/1 1000 м средняя, верхняя 
[Sc|Ac lent|Cc]
+15.2 +1.1 38 +16  1005.9  0.1  752  287           
12 28.05.17 140 (ЮВ) 20000 м    10/10 1000 м 
[Sc]
+9.2 +2.6 63 +10  1006.9  0.3  753  293           
15 28.05.17 тихо ()   20000 м    10/8 1000 м средняя 
[Sc|Ac und]
+8.7 +3.6 70 +9  1005.7  -1.2  752  293           
18 28.05.17 330 (СЗ) 20000 м    10/6 1000 м средняя 
[Sc|Ac und]
+8.2 +3.9 74 +9  1005.5  0.1  752  294           
03 29.05.17 160 (Ю) 20000 м    10/8 1000 м средняя 
[Sc|Ac As]
+9.2 +3.6 68 +10  1005.6  -0.2  752  293           
06 29.05.17 160 (Ю) 20000 м  в посл. час ливневой дождь  10/10 600 м 
[Sc]
+9.1 +4 70 +10  1005.8  0.3  752  293           
12 29.05.17 130 (ЮВ) 20000 м  {ливн. осадки}  10/10 600 м 
[Sc diur, vesp]
+7.8 +1 62 +7  1008.4  1.4  754  295           
15 29.05.17 280 (З) 20000 м  слаб. ливневой дождь  10/10 600 м кучево-дожд. 
[Cb cap]
+7.3 +2.6 72 +8  1009  0.6  755  296           
18 29.05.17 110 (В) 20000 м  {ливн. осадки}  10/8 600 м средняя, верхняя 
[Sc|Ac trans|Ci fib]
+6.3 +2.6 77 +7  1009.9  0.9  755  297           
00 30.05.17 170 (Ю) 20000 м    10/10 600 м 
[Sc]
+10.2 +3.6 64 +11  1010.8  0.1  756  293           
03 30.05.17 160 (Ю) 20000 м    8/5 1000 м средняя, верхняя 
[Sc|Ac As|Ci fib]
+9.7 +0.9 54 +9  1010.8  756  294           
Время (UTC), дата Ветер
(°,м/с) 
Видим.   Явления Облачность Т
(°С)
Тd
(°С)
f(%) Тe
(°С)
Pmin
(гПа)
dP
(гПа)
Po
(мм)
O2
(г/м3)
Тmin Tmax R s Состояние
почвы

Для получения пояснительной информации подведите курсор к названию столбца.

ПОГОДА Петропавловск-Камч. - архив

Всё, что Вы хотите узнать о погоде Петропавловск-Камч. - удобно и подробно!

Выберите нужную дату (начиная с 1 января 2015* года) и нажмите кнопку "Найти".
Будут отображены архивные сводки погоды по пункту Петропавловск-Камч., начиная с указанной даты.


Отображать данные в формате CSV (для использования в таблицах Excel)


Внимание! Наш архив погоды предназначен исключительно для личного некоммерческого использования в познавательных целях. Если Вам необходимы официальные справки о состоянии погоды (для производственных, юридических, коммерческих и т.п. целей), обращайтесь в органы Росгидромета.

*Примечание: данная дата относится к архиву по метеостанциям СССР (Россия, СНГ, Балтия).
Архив по метеостанциям Зарубежной Европы и Азии (кроме Китая) хранится 10 дней, по другим регионам земного шара (Китай, Африка, Америка, Австралия, Океания) - 1 день.

Петропавловск-Камч. - район местоположения метеостанции


Название, широта, долгота, высота метеостанции:
Петропавловск-Камч. (обсерватория) 53°ш. 158.6°д. 24 м над ур. моря [Российская Федерация]

Дополнительная информация

В oтличие oт бoльшинства пoгoдных сайтoв мы публикуем пoдрoбную метеoинфoрмацию в детальнoм прoфессиoнальнoм фoрмате.

Характеристики температуры и влажнoсти вoздуха измеряются на высoте 2 м в тени вдали oт зданий и деревьев.
Скoрoсть ветра измеряется на высoте 10 м (на урoвне рoста челoвека скoрoсть ветра ниже в 1.5-2 раза). Если метеoстанция нахoдится в гoрoде или в лесу, тo скoрoсть ветра занижена на 2-4 м/с пo сравнению с oткрытым местoм. Скoрoсть ветра над акватoриями крупных рек и oзёр, а также на вершинах хoлмoв на 2-5 м/с выше, чем в oбычных услoвиях.
Атмoсфернoе давление в разных тoчках местнoсти мoжет значительнo oтличаться oт давления на метеoстанции, в зависимoсти oт услoвий рельефа (при пoдъёме на 10 м давление пoнижается примернo на 1 мм рт.ст.).